Back to catalog

FENGYUN 1C DEB

AliveSSO
NORAD 30142·DEBRIS·🇨🇳 China

Launched May 10, 1999 from Taiyuan Satellite Launch Center

Loading…

Next Passes (next 24 hours)

TLE

FreshSource: Space-Track

Epoch: Sep 14, 2026, 04:42 UTC

1 30142U 99025SX  26257.19601013  .00001890  00000-0  10102-2 0  9992
2 30142  99.1179 342.3679 0100087 255.4118 103.5937 14.11956540  1852

Track FENGYUN 1C DEB in real time with AllMySat

Download on the App Store